Regional Weather Roundup
Issued by NWS Northern Indiana

Home | Current Version | Previous Version | Graphics & Text | Print | Product List | Glossary On
Versions: 1 2 3 4 5 6 7 8 9 10 11 12 13 14 15 16 17 18 19 20 21 22 23 24 25 26 27 28 29 30 31 32 33 34 35 36 37 38 39 40 41 42 43 44 45 46 47 48 49 50
000
ASUS43 KIWX 201510
RWRIWX

KIWX WEATHER ROUNDUP
NATIONAL WEATHER SERVICE NORTHERN INDIANA
1100 AM EDT SUN AUG 20 2017

NOTE: "FAIR" INDICATES FEW OR NO CLOUDS BELOW 12,000 FEET WITH NO
SIGNIFICANT WEATHER AND/OR OBSTRUCTIONS TO VISIBILITY.

* THESE STATIONS ARE NOT UNDER NWS QUALITY CONTROL. THEY ALSO MAY NOT
  REPORT WEATHER SUCH AS PRECIPITATION OR FOG.

INZ001>027-201600-
NORTHERN INDIANA

CITY           SKY/WX    TMP DP  RH WIND       PRES   REMARKS
GARY*          PTSUNNY   79  61  53 S6        30.07R
VALPARAISO     SUNNY     77  66  68 SW7       30.09R
MICHIGAN CITY* SUNNY     79  61  53 S5        30.09R
LAPORTE*       SUNNY     76  62  60 SW7       30.10R
KNOX*          SUNNY     77  64  65 S7        30.08R
SOUTH BEND     SUNNY     78  63  59 S10       30.09R
ELKHART*       SUNNY     79  61  53 S8        30.09R
GOSHEN         SUNNY     77  61  57 S8        30.09R
MONTICELLO*    SUNNY     78  67  69 SW5       30.07S
LOGANSPORT*    SUNNY     77  68  73 SW5       30.09R
ROCHESTER*     MOSUNNY  N/A N/A N/A S5        30.09R
WARSAW*        SUNNY     75  63  64 CALM      30.09R
AUBURN*        SUNNY     77  63  61 S3        30.10R
FORT WAYNE     MOSUNNY   78  64  61 VRB6      30.10R
HUNTINGTON*    SUNNY     76  65  68 S3        30.09R
PERU/GRISSOM   SUNNY     78  68  72 SW5       30.08R
MARION*        SUNNY     77  68  73 SW7       30.10R HAZE

$$
INZ028>050-201600-
CENTRAL INDIANA

CITY           SKY/WX    TMP DP  RH WIND       PRES   REMARKS
LAFAYETTE      SUNNY     79  70  74 VRB5      30.06S
KOKOMO*        SUNNY     77  70  79 S6        30.09R
MUNCIE*        SUNNY     81  68  64 SW7       30.09R
INDIANAPOLIS   MOSUNNY   81  69  67 S5        30.07S

$$
MIZ043>046-050>051-056>058-064>065-071>073-077>080-201600-
SOUTHWEST LOWER MICHIGAN

CITY           SKY/WX    TMP DP  RH WIND       PRES   REMARKS
BATTLE CREEK   SUNNY     76  62  62 SW6       30.10R
BENTON HARBOR  MOSUNNY   78  60  53 S6        30.07R
COLDWATER*     SUNNY     77  60  55 SE8       30.10R
HILLSDALE*     SUNNY     73  61  64 S5        30.11R
HOLLAND        CLOUDY    74  63  68 SW5       30.08R
GRAND RAPIDS   PTSUNNY   75  60  59 VRB6      30.08R
KALAMAZOO      SUNNY     77  60  55 S8        30.09R
STURGIS*       SUNNY     76  63  63 S8        30.09R
THREE RIVERS*  FAIR      78  60  54 S7        30.10R

$$
OHZ001>008-015>018-024>025-201600-
NORTHWEST OHIO

CITY           SKY/WX    TMP DP  RH WIND       PRES   REMARKS
WAUSEON*       FAIR      77  63  61 CALM      30.10S
DEFIANCE       SUNNY     76  63  64 S5        30.10S
FINDLAY        SUNNY     78  62  57 SE12      30.09F
TOLEDO EXPRESS SUNNY     76  63  64 S3        30.09F
TOLEDO METCALF SUNNY     77  63  61 SW7       30.11S
LIMA           SUNNY     78  65  63 S8        30.10S

$$
AND FOR LAKE MICHIGAN COASTAL AND OPEN LAKE BUOY OBSERVATIONS

STATION/POSITION TEMP    WIND        PRES    VSBY  WAVE
                 AIR SEA DIR/SP/G                  HT/PER
                 (F)     (DEG/KT/KT) (MB)    (MI)  (FT/S)
CALUMET HARBOR    77     170/  9/ 11 1017.2R
MICHIGAN CITY     75     150/  8/ 10   N/A
BURNS HARBOR      78     190/ 10/ 12 1018.6R
SAINT JOSEPH      78     210/  5/  6 1019.6
SOUTH LAKE BUOY   72 71  190/ 10/ 12 1017.8R         1/ 3
4 MI NW BRIDGMAN  75 75  190/  8/ 10 1018.2          1
MICHIGAN CITY     75 74  180/ 10/ 12   N/A           1

$$
&&




USA.gov is the U.S. government's official web portal to all federal, state and local government web resources and services.